Regional Weather Roundup
Issued by NWS San Diego, CA

Home | Current Version | Previous Version | Text Only | Print | Product List | Glossary On
Versions: 1 2 3 4 5 6 7 8 9 10 11 12 13 14 15 16 17 18 19 20 21 22 23 24 25 26
000
ASUS46 KSGX 262011
RWRSGX

SAN DIEGO HOURLY WEATHER ROUNDUP
NATIONAL WEATHER SERVICE SAN DIEGO CA
100 PM PDT THU MAY 26 2016

NOTE: "FAIR" INDICATES FEW OR NO CLOUDS BELOW 12,000 FEET WITH NO
SIGNIFICANT WEATHER AND/OR OBSTRUCTIONS TO VISIBILITY.

CAZ042-043-060-061-PZZ750-775-262100-

GREATER SAN DIEGO AREA

CITY           SKY/WX    TMP DP  RH WIND       PRES   REMARKS
LINDBERGH FLD  PTSUNNY   66  52  60 SW9       30.07F
POINT LOMA       N/A     71  53  52 W10         N/A
NATIONAL CITY    N/A     67  57  69 SW9       30.07F
CHULA VISTA      N/A     67  57  70 W6        29.99S
IMPERIAL BEACH FAIR      69  53  56 W13       30.07F
BROWN FIELD    PTSUNNY   67  53  61 VRB5      30.05F
MIRAMAR MCAS   PTSUNNY   68  52  56 W7        30.05F
MONTGOMERY FLD PTSUNNY   67  52  58 SW8       30.05F

$$

NORTH SAN DIEGO COUNTY

CITY           SKY/WX    TMP DP  RH WIND       PRES   REMARKS
CAMP PENDLETON PTSUNNY   68  54  60 SW7       30.05F
OCEANSIDE AP   PTSUNNY   67  52  58 W9        30.04F
OCEANSIDE HBR    N/A     64  58  81 SW10      30.08F
VISTA            N/A     67  56  67 SW3       30.03F
CARLSBAD       PTSUNNY   65  54  67 W10       30.04F
DEL MAR          N/A     68  57  68 CALM      30.08F
LA JOLLA SCRIP   N/A     64  56  75 SW2       30.05F
FALLBROOK        N/A     69  57  65 S6        30.03F
ESCONDIDO        N/A     72  57  59 CALM      30.06F
SAN MARCOS       N/A     65  53  65 CALM      30.03F
POWAY            N/A     73  57  59 CALM      30.06F

$$

EAST SAN DIEGO COUNTY

CITY           SKY/WX    TMP DP  RH WIND       PRES   REMARKS
RAMONA         PTSUNNY   67  50  54 W12G20    30.05F
SANTEE LAKES     N/A     70  56  61 CALM      30.03F
LA MESA          N/A     66  54  64 W5        29.98F
DESCANSO N       N/A     64  51  63 W7        29.97F
MT. LAGUNA OBS   N/A     58  39  50 W3        29.68S
CAMPO            N/A     70  49  47 W13G24    30.00F

$$

ORANGE COUNTY AND THE LOS ANGELES BASIN

CITY           SKY/WX    TMP DP  RH WIND       PRES   REMARKS
JOHN WAYNE AP  FAIR      69  52  54 S10G20    30.05F
LAKE FOREST FR   N/A     69  51  52 SW6       29.94F
HUNTINGTON BCH   N/A     69  58  67 SW8       30.07F
LOS ALAMITOS   MOSUNNY   70  54  56 S12       30.05S
FULLERTON      PTSUNNY   70  52  52 S8        30.03F
LONG BEACH     PTSUNNY   67  52  58 SW10      30.05F
L.A. AP        FAIR      68  52  56 W15       30.05F
L.A. DOWNTOWN  PTSUNNY   70  53  54 CALM      30.04S

$$

THE INLAND EMPIRE

CITY           SKY/WX    TMP DP  RH WIND       PRES   REMARKS
CORONA         FAIR      73  52  47 W10G20    30.02F
CHINO          FAIR      76  50  40 W10       30.04S
ONTARIO        FAIR      72  48  42 W9        30.02F
SAN BERNARDINO MOSUNNY   72  45  37 W9        30.03F
RIVERSIDE AP   FAIR      74  48  39 NW8       30.02F
MORENO VALLEY    N/A     72  53  51 SW6       28.14F
MARCH ARB      FAIR      71  47  42 W8        30.02F
HORSETHIEF CYN   N/A     73  46  38 NE5       30.05F
PERRIS           N/A     69  51  51 SE1       30.02F
HEMET EAST       N/A     67  43  42 SW5       29.94F
FRENCH VALLEY  FAIR      68  50  52 S8        30.03F
TEMECULA         N/A     71  54  54 W2        30.00F

$$

SAN BERNARDINO AND RIVERSIDE COUNTY MOUNTAINS

CITY           SKY/WX    TMP DP  RH WIND       PRES   REMARKS
BIG BEAR AP    FAIR      55  27  33 W8        30.14S
ANGELUS OAKS     N/A     60  45  59 W1        29.99F
PINE COVE        N/A     58  43  56 W2        30.07F

$$

SOUTHERN DESERT INCLUDING THE COACHELLA VALLEY

CITY           SKY/WX    TMP DP  RH WIND       PRES   REMARKS
PALM SPRINGS   FAIR      82  41  23 NW17G24   29.89F
THOUSAND PALMS   N/A     84  45  24 W7        29.89F
PALM DESERT      N/A     87  46  24 CALM      31.96S
THERMAL        FAIR      88  37  16 W7        29.86F
BLYTHE         FAIR      85  41  21 VRB5      29.89F
IMPERIAL AP    FAIR      86  39  19 W7        29.89F
EL CENTRO NAS  FAIR      85  35  16 SW7       29.91F
YUMA AZ        FAIR      82  40  22 W8        29.91
MEXICALI       SUNNY     84  36  17 W6        29.92

$$

UPPER DESERT

CITY           SKY/WX    TMP DP  RH WIND       PRES   REMARKS
VICTORVILLE AP FAIR      75  36  23 CALM      30.01F
HESPERIA         N/A     73  41  31 NE7       30.10F
PALMDALE       PTSUNNY   76  37  24 MISG      30.01F
LANCASTER      FAIR      78  38  23 VRB6G16   30.00F
EDWARDS AFB    MOSUNNY   77  36  22 VRB1      29.97F
DAGGETT        FAIR      78  36  21 VRB7      29.96F
29 PALMS N     FAIR      78  36  21 CALM      30.01F
NEEDLES        FAIR      85  33  15 VRB5      29.88F

$$

REGIONAL REPORTS

CITY           SKY/WX    TMP DP  RH WIND       PRES   REMARKS
SANTA BARBARA  FAIR      68  51  54 S7        30.04F
SANDBERG       FAIR      66  40  38 NW23G30   30.12S
LAS VEGAS NV   FAIR      81  26  13 W9        29.88F
PHOENIX AZ     FAIR      81  34  18 VRB3      29.90F
TIJUANA        PTSUNNY   66  50  55 W8        30.07F
ENSENADA NW      N/A     66  32  28 W2        30.03F

$$

OFFSHORE ISLANDS

CITY           SKY/WX    TMP DP  RH WIND       PRES   REMARKS
CATALINA ARPT  CLOUDY    61  51  70 N5        30.08S
SAN CLEMENTE I MOSUNNY   65  54  67 W16       30.08F
SAN NICOLAS IS PTSUNNY   64  54  69 NW26G33   30.08S

$$

MARINE AND OFFSHORE BUOY REPORTS

STATION/POSITION SKY/WX   TEMP    WIND        PRES    SWELL
                          AIR SEA DIR/SP/G            HT/PER/DIR
                          (F)     (DEG/KT/KT) (MB)    (FT/S/D)
TANNER BANKS               59 61  320/ 21/ 25 1019.0F   2/14
S CLEMENTE BASIN           60 63  300/  8/ 10 1017.9F   5/290/ 8
SAN NICOLAS IS.               59                N/A     2/220/17
SO. S. ROSA ISLA           56 56  310/ 21/ 25 1019.0F   3/290/16
W. S. BARBARA CH           55 54  310/ 17/ 21 1018.7S   3/310/ 8
M. S. BARBARA CH           58 59  260/ 14/ 17 1019.0F
S. MONICA BASIN            60 64  300/  8/ 10 1018.2F   3/260/ 6
S PEDRO CHANNEL               65                N/A
OCEANSIDE OFFSHR              66                N/A     2/200/14
TORREY PINES OTR              66                N/A     2/200/14
LA JOLLA 1                 63 65  240/  7/  8 1018.0F
SAN DIEGO BAY                 69              1018.4F
POINT LOMA SOUTH              66                N/A     2/230/15

$$





USA.gov is the U.S. government's official web portal to all federal, state and local government web resources and services.